Find Starlink 11442

NORAD ID: 62885 Int'l Des: 2025-024 Owner: SPXS Country: US Constellation: starlink operational
LEOCIRCULAR

リアルタイム位置

3D地球を読み込み中...

Starlink 11442について

説明を読み込み中...

次回通過

Passes for default location (London). Set your location on the main map for personalized predictions.

高度履歴

Loading altitude history...

軌道要素

1 62885U 25024G 26126.56829539 .00266179 00000-0 19966-2 0 9990
2 62885 43.0003 192.2021 0002550 273.8399 86.2177 15.71024402 72579
Epoch: May 6, 2026 • Age: 23 hours

現在のステータス

高度 356.0 km
速度 7.70 km/s
衛星直下点 29.56°N, 167.48°E
打ち上げ日 Feb 4, 2025
運用期間 1.2 years
タイプ internet

技術仕様

分類 Payload
質量 960.00 kg
乾燥質量 910.00 kg
総質量 960.00 kg
長さ 0.30 m
直径 4.10 m
スパン 29.00 m
形状 Box + pan
製造者 SPXS
バスタイプ Starlink V2MD
フェーズステータス In Orbit
所有者/国 SPXS/US

Most Searched